, FL

(GMT )
Bonifay

Weather History for K1J0 - August, 2019

Change the Weather History Date:

Friday, August 9, 2019

  Actual Average (WUND) Record (WUND)
Temperature  
Mean Temperature 84 °F -  
Max Temperature 96 °F - - (-1)
Min Temperature 73 °F - - (-1)
Cooling Degree Days 20    
Growing Degree Days 34 (Base 50)    
Moisture  
Dew Point 75 °F    
Average Humidity 78    
Maximum Humidity 96    
Minimum Humidity 51    
Precipitation  
Precipitation 0.00 in - - ()
Sea Level Pressure  
Sea Level Pressure 29.85 in    
Wind  
Wind Speed 2 mph (SW)    
Max Wind Speed 8 mph    
Max Gust Speed 16 mph    
Visibility 9 miles    
Events Thunderstorm    
Averages and records for this station are not official NWS values.
T = Trace of Precipitation, MM = Missing Value Source: NWS Daily Summary

Daily Weather History Graph

Daily Weather History Graph

Search for Another Location

Airport or City:

Astronomy

Aug. 09, 2019 Rise Set
Actual Time 7:04 AM EDT 8:30 PM EDT
Civil Twilight 6:39 AM EDT 8:56 PM EDT
Nautical Twilight 6:08 AM EDT 9:27 PM EDT
Astronomical Twilight 5:36 AM EDT 9:59 PM EDT
Moon 4:06 PM EDT (8/9) 2:03 AM EDT (8/9)
Length of Visible Light 14h 17m
Length of Day
13h 25m
Waxing Gibbous, 70% of the Moon is Illuminated
Aug 9
Waxing Gibbous
Aug 15
Full
Aug 23
Last Quarter
Aug 30
New
Sep 5
First Quarter

Hourly Weather History & Observations

Time (EDT) Temp. Heat Index Dew Point Humidity Pressure Visibility Wind Dir Wind Speed Gust Speed Precip Events Conditions
12:58 AM 75.9 °F - 73.9 °F 94% 29.82 in 8.0 mi Calm Calm - N/A   Clear
1:58 AM 75.9 °F - 73.9 °F 94% 29.81 in 7.0 mi Calm Calm - N/A   Clear
2:58 AM 75.0 °F - 73.9 °F 96% 29.81 in 8.0 mi Calm Calm - N/A   Clear
3:58 AM 75.0 °F - 73.0 °F 94% 29.81 in 6.0 mi Calm Calm - N/A   Clear
4:58 AM 75.0 °F - 73.0 °F 94% 29.81 in 6.0 mi Calm Calm - N/A   Clear
5:11 AM 75.0 °F - 73.0 °F 94% 29.93 in 5.0 mi Calm Calm - N/A   Partly Cloudy
5:58 AM 75.0 °F - 73.0 °F 94% 29.83 in 6.0 mi Calm Calm - N/A   Clear
6:58 AM 73.9 °F - 72.0 °F 93% 29.83 in 6.0 mi Calm Calm - N/A   Clear
7:58 AM 75.9 °F - 73.9 °F 94% 29.84 in 6.0 mi Calm Calm - N/A   Clear
8:58 AM 79.0 °F - 75.0 °F 88% 29.86 in 10.0 mi SSE 3.5 mph - N/A   Clear
9:58 AM 84.0 °F 91.9 °F 75.0 °F 74% 29.87 in 10.0 mi NNW 4.6 mph - N/A   Clear
10:58 AM 87.1 °F 97.3 °F 75.9 °F 69% 29.87 in 10.0 mi Variable 3.5 mph - N/A   Clear
11:58 AM 90.0 °F 101.3 °F 75.9 °F 63% 29.88 in 10.0 mi Variable 4.6 mph - N/A   Clear
12:58 PM 91.9 °F 105.9 °F 77.0 °F 62% 29.86 in 10.0 mi Variable 5.8 mph - N/A   Scattered Clouds
1:58 PM 93.0 °F 105.3 °F 75.9 °F 57% 29.84 in 10.0 mi Calm Calm - N/A   Scattered Clouds
2:58 PM 93.9 °F 106.9 °F 75.9 °F 56% 29.81 in 10.0 mi Variable 5.8 mph - N/A   Partly Cloudy
3:58 PM 96.1 °F 108.6 °F 75.0 °F 51% 29.81 in 10.0 mi North 4.6 mph - N/A   Partly Cloudy
4:33 PM 93.9 °F 104.0 °F 73.9 °F 52% 29.92 in 10.0 mi Calm Calm - N/A Thunderstorm Thunderstorm
4:48 PM 88.0 °F 97.5 °F 75.0 °F 65% 29.93 in 10.0 mi SW 6.9 mph 16.1 mph N/A Thunderstorm Mostly Cloudy
4:53 PM 87.1 °F 96.3 °F 75.0 °F 67% 29.93 in 10.0 mi SW 5.8 mph - N/A Thunderstorm Thunderstorm
5:18 PM 84.0 °F 92.6 °F 75.9 °F 76% 29.91 in 10.0 mi SSW 5.8 mph - N/A Thunderstorm Thunderstorm
5:58 PM 82.9 °F 88.8 °F 73.0 °F 72% 29.81 in 10.0 mi WSW 6.9 mph - N/A Thunderstorm Thunderstorm
6:11 PM 84.0 °F 91.2 °F 73.9 °F 72% 29.93 in 10.0 mi Variable 3.5 mph - N/A   Clear
6:58 PM 84.0 °F 92.6 °F 75.9 °F 76% 29.81 in 10.0 mi SSW 8.1 mph - N/A   Clear
7:58 PM 82.0 °F 89.4 °F 75.9 °F 82% 29.83 in 10.0 mi SW 3.5 mph - N/A   Clear
8:58 PM 80.1 °F 85.1 °F 75.0 °F 85% 29.82 in 10.0 mi Calm Calm - N/A   Clear
9:58 PM 80.1 °F 85.1 °F 75.0 °F 85% 29.84 in 10.0 mi Variable 3.5 mph - N/A   Clear
10:58 PM 80.1 °F 85.4 °F 75.9 °F 87% 29.86 in 10.0 mi Calm Calm - N/A   Clear
11:58 PM 79.0 °F - 75.9 °F 90% 29.86 in 10.0 mi Calm Calm - N/A   Clear